This demonstration page uses our WeatherBlox Daily Observations layout. Learn more.

Left ArrowRight Arrow

38.20091, -84.87328

Hourly Observations for April 9, 2022

Temp ( °F °C ) Dew Point ( °F °C ) Humidity (%) Winds ( mph kmh ) Pressure ( in mb ) Visibility ( mi km ) Precip ( " mm )
12:46 am 00:46 Cloudy 39 3.9 32 0 76 76 WSW 10 17 29.85 1011 10 16 0.00 0.00
12:53 am 00:53 Cloudy 39 3.9 33 0.6 79 79 WSW 12 19 29.83 1010 10 16 0.00 0.00
1:53 am 01:53 Cloudy 39 3.9 33 0.6 79 79 WSW 10 17 29.82 1010 10 16 0.00 0.00
2:24 am 02:24 Cloudy 38 3.3 33 0.6 83 83 WSW 9 15 29.84 1011 10 16 0.00 0.00
2:53 am 02:53 Cloudy 38 3.3 33 0.6 83 83 WSW 10 17 29.81 1010 10 16 0.00 0.00
3:07 am 03:07 Cloudy with Light Rain 37 2.8 33 0.6 86 86 WSW 10 17 29.83 1010 9 14 0.00 0.00
3:14 am 03:14 Cloudy 37 2.8 33 0.6 86 86 WSW 7 11 29.83 1010 10 16 0.00 0.00
3:39 am 03:39 Cloudy 37 2.8 33 0.6 86 86 SW 8 13 29.83 1010 10 16 0.00 0.00
3:53 am 03:53 Cloudy 38 3.3 33 0.6 83 83 SW 13 20 29.81 1010 10 16 0.00 0.00
4:04 am 04:04 Cloudy 37 2.8 33 0.6 86 86 WSW 9 15 29.83 1010 10 16 0.00 0.00
4:53 am 04:53 Cloudy 37 2.8 33 0.6 86 86 WSW 10 17 29.81 1009 10 16 0.00 0.00
5:03 am 05:03 Cloudy 37 2.8 32 0 82 82 WSW 9 15 29.83 1010 10 16 0.00 0.00
5:16 am 05:16 Cloudy 37 2.8 33 0.6 86 86 WSW 7 11 29.83 1010 10 16 0.00 0.00
5:35 am 05:35 Cloudy 37 2.8 33 0.6 86 86 WSW 8 13 29.83 1010 10 16 0.00 0.00
5:50 am 05:50 Cloudy 37 3 32 0 81 81 WSW 6 9 29.83 1010 10 16 0.00 0.00
5:53 am 05:53 Cloudy 37 2.8 32 0 82 82 WSW 6 9 29.81 1009 10 16 0.00 0.00
6:53 am 06:53 Cloudy 37 2.8 32 0 82 82 WSW 9 15 29.82 1010 10 16 0.00 0.00
7:22 am 07:22 Cloudy 37 2.8 33 0.6 86 86 WSW 9 15 29.84 1011 10 16 0.00 0.00
7:36 am 07:36 Cloudy 37 2.8 33 0.6 86 86 SW 12 19 29.85 1011 10 16 0.00 0.00
7:43 am 07:43 Cloudy 37 2.8 33 0.6 86 86 SW 10 17 29.85 1011 10 16 0.00 0.00
7:53 am 07:53 Cloudy 37 2.8 33 0.6 86 86 WSW 9 15 29.84 1010 10 16 0.00 0.00
8:05 am 08:05 Cloudy with Light Rain 37 2.8 33 0.6 86 86 WSW 9 15 29.86 1011 8 13 0.01 0.25
8:11 am 08:11 Cloudy with Light Snow 36 2.2 32 0 86 86 WSW 10 17 29.87 1012 3 4 0.02 0.51
8:17 am 08:17 Cloudy with Light Snow 35 1.7 31 -0.6 85 85 WSW 12 19 29.88 1012 1 2 0.04 1.02
8:35 am 08:35 Cloudy with Light Snow 34 1.1 31 -0.6 89 89 WSW 8 13 29.88 1012 1 2 0.06 1.52
8:46 am 08:46 Cloudy with Light Snow 34 1.1 32 0 92 92 WSW 6 9 29.88 1012 3 4 0.06 1.52
8:53 am 08:53 Cloudy 35 1.7 32 0 89 89 WSW 7 11 29.85 1011 8 13 0.06 1.52
9:08 am 09:08 Cloudy with Light Snow 35 1.7 33 0.6 93 93 WSW 8 13 29.88 1012 7 11 0.00 0.00
9:53 am 09:53 Cloudy with Light Snow 37 2.8 34 1.1 89 89 W 7 11 29.86 1011 7 11 0.01 0.25
10:15 am 10:15 Cloudy 39 3.9 35 1.7 86 86 VRB 7 11 29.88 1012 10 16 0.00 0.00
10:25 am 10:25 Cloudy 38 3.3 34 1.1 86 86 WSW 8 13 29.89 1012 8 13 0.00 0.00
10:32 am 10:32 Cloudy with Light Rain 38 3.3 34 1.1 86 86 W 9 15 29.89 1012 7 11 0.00 0.00
10:50 am 10:50 Cloudy with Light Rain 39 4 32 0 75 75 W 12 19 29.89 1012 6 10 0.01 0.25
10:53 am 10:53 Cloudy with Rain 38 3.3 32 0 79 79 W 12 19 29.87 1012 4 6 0.01 0.25
11:53 am 11:53 Cloudy 40 4.4 32 0 73 73 W 13 20 29.89 1012 10 16 0.00 0.00
12:53 pm 12:53 Cloudy 40 4.4 29 -1.7 65 65 WNW 9 15 29.89 1012 10 16 0.00 0.00
1:14 pm 13:14 Cloudy 40 4.4 29 -1.7 65 65 WNW 14 22 29.92 1013 10 16 0.00 0.00
1:27 pm 13:27 Cloudy 41 5 28 -2.2 60 60 WNW 14 22 29.92 1013 10 16 0.00 0.00
1:53 pm 13:53 Cloudy 40 4.4 27 -2.8 60 60 WNW 9 15 29.91 1013 10 16 0.00 0.00
2:53 pm 14:53 Cloudy 41 5 27 -2.8 57 57 WNW 10 17 29.92 1013 10 16 0.00 0.00
3:53 pm 15:53 Cloudy 44 6.7 28 -2.2 53 53 W 8 13 29.93 1014 10 16 0.00 0.00
4:53 pm 16:53 Cloudy 46 7.8 27 -2.8 47 47 WNW 8 13 29.92 1013 10 16 0.00 0.00
5:53 pm 17:53 Cloudy 45 7.2 26 -3.3 48 48 WNW 8 13 29.93 1014 10 16 0.00 0.00
6:53 pm 18:53 Cloudy 46 7.8 26 -3.3 46 46 W 6 9 29.94 1014 10 16 0.00 0.00
7:53 pm 19:53 Mostly Cloudy 44 6.7 26 -3.3 49 49 W 3 6 29.95 1014 10 16 0.00 0.00
8:53 pm 20:53 Clear 38 3.3 29 -1.7 70 70 Calm 29.97 1015 10 16 0.00 0.00
9:53 pm 21:53 Clear 34 1.1 27 -2.8 76 76 Calm 29.99 1016 10 16 0.00 0.00
10:53 pm 22:53 Clear 33 0.6 27 -2.8 78 78 Calm 30.01 1016 10 16 0.00 0.00
11:53 pm 23:53 Clear 32 0 27 -2.8 82 82 Calm 30.01 1016 10 16 0.00 0.00

Powered by AerisWeather